Meeker, CO

7:43 PM MST on February 07, 2016 (GMT -0700)
Meeker

Weather History for KEEO - October, 2012

Change the Weather History Date:

Tuesday, October 23, 2012

  Actual Average Record
Temperature  
Mean Temperature 52 °F 42 °F  
Max Temperature 62 °F 57 °F 77 °F (2003)
Min Temperature 41 °F 26 °F 12 °F (2008)
Degree Days  
Heating Degree Days 13 23  
Month to date heating degree days 403 436  
Since 1 July heating degree days 623 743  
Cooling Degree Days 0 0  
Month to date cooling degree days 0 0  
Year to date cooling degree days 325 172  
Growing Degree Days 2 (Base 50)    
Moisture  
Dew Point 28 °F    
Average Humidity 41    
Maximum Humidity 58    
Minimum Humidity 23    
Precipitation  
Precipitation 0.00 in 0.05 in 0.30 in (2010)
Month to date precipitation 0.56 1.40  
Year to date precipitation 7.01 13.02  
Sea Level Pressure  
Sea Level Pressure 29.64 in    
Wind  
Wind Speed 13 mph (SSW)    
Max Wind Speed 29 mph    
Max Gust Speed 39 mph    
Visibility 10 miles    
Events      
T = Trace of Precipitation, MM = Missing Value Source: NWS Daily Summary

Daily Weather History Graph

Daily Weather History Graph

Search for Another Location

Airport or City:

Trip Planner

Search our weather history database for the weather conditions in past years. The results will help you decide how hot, cold, wet, or windy it might be!

Date:

Astronomy

Oct. 23, 2012 Rise Set
Actual Time 7:31 AM MDT 6:19 PM MDT
Civil Twilight 7:03 AM MDT 6:47 PM MDT
Nautical Twilight 6:31 AM MDT 7:18 PM MDT
Astronomical Twilight 6:00 AM MDT 7:50 PM MDT
Moon 3:05 PM MDT (10/23) 1:26 AM MDT (10/23)
Length of Visible Light 11h 43m
Length of Day
10h 48m
Waxing Gibbous, 67% of the Moon is Illuminated
Oct 23
Waxing Gibbous
Oct 29
Full
Nov 6
Last Quarter
Nov 13
New
Nov 20
First Quarter

Hourly Weather History & Observations

Time (MDT) Temp. Windchill Dew Point Humidity Pressure Visibility Wind Dir Wind Speed Gust Speed Precip Events Conditions
12:53 AM 55.9 °F - 30.0 °F 37% 29.60 in 10.0 mi South 13.8 mph 25.3 mph N/A   Scattered Clouds
1:53 AM 55.9 °F - 30.0 °F 37% 29.58 in 10.0 mi SSW 12.7 mph 24.2 mph N/A   Mostly Cloudy
2:53 AM 55.9 °F - 30.9 °F 39% 29.58 in 10.0 mi SSW 13.8 mph 23.0 mph N/A   Clear
3:53 AM 55.9 °F - 30.0 °F 37% 29.57 in 10.0 mi SSW 25.3 mph 33.4 mph N/A   Clear
4:53 AM 54.0 °F - 30.9 °F 41% 29.57 in 10.0 mi SW 12.7 mph 23.0 mph N/A   Clear
5:53 AM 55.0 °F - 30.0 °F 38% 29.60 in 10.0 mi SSW 18.4 mph 32.2 mph N/A   Clear
6:53 AM 54.0 °F - 30.0 °F 40% 29.64 in 8.0 mi SSW 16.1 mph 36.8 mph N/A   Mostly Cloudy
7:53 AM 53.1 °F - 28.0 °F 38% 29.69 in 10.0 mi SW 19.6 mph 29.9 mph N/A   Partly Cloudy
8:53 AM 55.0 °F - 30.0 °F 38% 29.68 in 10.0 mi SSW 15.0 mph 27.6 mph N/A   Scattered Clouds
9:53 AM 57.0 °F - 30.0 °F 36% 29.68 in 10.0 mi SW 19.6 mph 26.5 mph N/A   Mostly Cloudy
12:53 PM 60.1 °F - 24.1 °F 25% 29.65 in 10.0 mi SW 19.6 mph 28.8 mph N/A   Partly Cloudy
1:53 PM 60.1 °F - 24.1 °F 25% 29.63 in 6.0 mi SSW 20.7 mph 31.1 mph N/A   Haze
2:53 PM 60.1 °F - 23.0 °F 24% 29.62 in 7.0 mi SW 18.4 mph 29.9 mph N/A   Scattered Clouds
3:53 PM 60.1 °F - 26.1 °F 27% 29.62 in 10.0 mi SW 12.7 mph - N/A   Scattered Clouds
4:53 PM 59.0 °F - 23.0 °F 25% 29.63 in 10.0 mi SW 13.8 mph - N/A   Clear
5:53 PM 57.0 °F - 23.0 °F 27% 29.64 in 10.0 mi WSW 9.2 mph - N/A   Mostly Cloudy
6:53 PM 55.0 °F - 24.1 °F 30% 29.65 in 10.0 mi Calm Calm - N/A   Mostly Cloudy
7:53 PM 50.0 °F - 28.0 °F 43% 29.68 in 10.0 mi ENE 8.1 mph - N/A   Overcast
8:53 PM 48.9 °F - 28.9 °F 46% 29.70 in 10.0 mi Calm Calm - N/A   Overcast
9:53 PM 46.9 °F - 30.0 °F 52% 29.70 in 10.0 mi Calm Calm - N/A   Overcast
10:53 PM 45.0 °F - 30.9 °F 58% 29.70 in 10.0 mi Calm Calm - N/A   Overcast
11:53 PM 43.0 °F 41.3 °F 28.0 °F 56% 29.71 in 10.0 mi South 3.5 mph - N/A   Mostly Cloudy